Location: Boston
(42.3580°N, 71.0600°W)
Time: 03:10:13
(UTC-04:00)

ISS - Pass Details

Date: 11 October 2017
Orbit: 401 x 408 km, 51.6° (Epoch: 20 October)

Event Time Altitude Azimuth Distance (km) Brightness Sun altitude
Rises 18:49:59 0° 307° (NW) 2,326 0.9 -8.5°
Reaches altitude 10° 18:52:15 10° 319° (NW) 1,466 -0.4 -8.9°
Maximum altitude 18:55:10 29° 22° (NNE) 774 -2.6 -9.4°
Enters shadow 18:57:25 14° 78° (ENE) 1,229 -2.0 -9.9°
